• In Uzbekistan
  • List of Countries
  • For 7 days
  • Water Temperature
  • Satellite Maps
  • Weather Map
  • Weather Widgets
  • user-avatar
    Login

    Hourly Weather Rozdollya

    Today, 23 May, Wednesday

    Time Temperature Precipitation Wind Pressure Humidity
    00:00 +17°C° 0 mm 2 mps 752 mmHg 90%
    01:00 +17°C° 0 mm 2 mps 752 mmHg 92%
    02:00 +17°C° 0 mm 3 mps 752 mmHg 93%
    03:00 +17°C° 0 mm 3 mps 752 mmHg 93%
    04:00 +17°C° 0 mm 3 mps 752 mmHg 94%
    05:00 +17°C° 0 mm 3 mps 752 mmHg 94%
    06:00 +19°C° 0 mm 3 mps 752 mmHg 87%
    07:00 +21°C° 0 mm 3 mps 752 mmHg 80%
    08:00 +23°C° 0 mm 4 mps 752 mmHg 73%
    09:00 +25°C° 0 mm 4 mps 752 mmHg 67%
    10:00 +26°C° 0 mm 4 mps 752 mmHg 61%
    11:00 +27°C° 0 mm 4 mps 751 mmHg 55%
    12:00 +27°C° 0 mm 4 mps 751 mmHg 55%
    13:00 +27°C° 0 mm 4 mps 751 mmHg 55%
    14:00 +28°C° 0 mm 4 mps 750 mmHg 55%
    15:00 +27°C° 0.2 mm 4 mps 750 mmHg 59%
    16:00 +26°C° 0.2 mm 3 mps 750 mmHg 63%
    17:00 +26°C° 0.2 mm 3 mps 750 mmHg 66%
    18:00 +24°C° 0.2 mm 3 mps 749 mmHg 73%
    19:00 +22°C° 0.2 mm 3 mps 749 mmHg 80%
    20:00 +20°C° 0.2 mm 2 mps 749 mmHg 86%
    21:00 +19°C° 0.1 mm 2 mps 749 mmHg 89%
    22:00 +19°C° 0.1 mm 2 mps 749 mmHg 91%
    23:00 +18°C° 0.1 mm 2 mps 749 mmHg 93%

    Tomorrow, 24 May, Thursday

    Time Temperature Precipitation Wind Pressure Humidity
    00:00 +18°C° 0 mm 3 mps 749 mmHg 93%
    01:00 +17°C° 0 mm 3 mps 748 mmHg 94%
    02:00 +17°C° 0 mm 3 mps 748 mmHg 95%
    03:00 +17°C° 0 mm 3 mps 748 mmHg 94%
    04:00 +17°C° 0 mm 3 mps 748 mmHg 94%
    05:00 +17°C° 0 mm 3 mps 748 mmHg 94%
    06:00 +19°C° 0 mm 3 mps 748 mmHg 88%
    07:00 +20°C° 0 mm 3 mps 748 mmHg 83%
    08:00 +22°C° 0 mm 3 mps 748 mmHg 77%
    09:00 +23°C° 0 mm 4 mps 748 mmHg 73%
    10:00 +25°C° 0 mm 4 mps 747 mmHg 69%
    11:00 +26°C° 0 mm 4 mps 747 mmHg 64%
    12:00 +26°C° 0.1 mm 4 mps 747 mmHg 63%
    13:00 +27°C° 0.1 mm 4 mps 746 mmHg 62%
    14:00 +27°C° 0.1 mm 4 mps 746 mmHg 61%
    15:00 +27°C° 0.2 mm 4 mps 746 mmHg 63%
    16:00 +26°C° 0.2 mm 4 mps 746 mmHg 65%
    17:00 +26°C° 0.2 mm 4 mps 745 mmHg 67%
    18:00 +23°C° 0.1 mm 4 mps 745 mmHg 74%
    19:00 +21°C° 0.1 mm 3 mps 746 mmHg 80%
    20:00 +20°C° 0.1 mm 3 mps 746 mmHg 87%
    21:00 +19°C° 0 mm 3 mps 746 mmHg 89%
    22:00 +19°C° 0 mm 3 mps 746 mmHg 91%
    23:00 +18°C° 0 mm 3 mps 746 mmHg 93%

    Day after tomorrow, 25 May, Friday

    Time Temperature Precipitation Wind Pressure Humidity
    00:00 +18°C° 0 mm 3 mps 746 mmHg 94%
    01:00 +17°C° 0 mm 3 mps 746 mmHg 95%
    02:00 +17°C° 0 mm 3 mps 746 mmHg 95%
    03:00 +17°C° 0 mm 4 mps 746 mmHg 94%
    04:00 +17°C° 0 mm 4 mps 746 mmHg 93%
    05:00 +16°C° 0 mm 5 mps 746 mmHg 92%
    06:00 +17°C° 0 mm 5 mps 746 mmHg 89%
    07:00 +17°C° 0 mm 5 mps 746 mmHg 86%
    08:00 +19°C° 0 mm 6 mps 747 mmHg 83%
    09:00 +19°C° 0 mm 6 mps 747 mmHg 82%
    10:00 +20°C° 0 mm 6 mps 747 mmHg 81%
    11:00 +20°C° 0 mm 6 mps 747 mmHg 80%
    12:00 +20°C° 0 mm 6 mps 747 mmHg 78%
    13:00 +21°C° 0 mm 7 mps 748 mmHg 76%
    14:00 +22°C° 0 mm 7 mps 748 mmHg 73%
    15:00 +22°C° 0.1 mm 7 mps 748 mmHg 73%
    16:00 +22°C° 0.1 mm 7 mps 748 mmHg 73%
    17:00 +22°C° 0.1 mm 7 mps 749 mmHg 72%
    18:00 +21°C° 0 mm 7 mps 749 mmHg 73%
    19:00 +20°C° 0 mm 7 mps 750 mmHg 74%
    20:00 +17°C° 0 mm 7 mps 751 mmHg 75%
    21:00 +16°C° 0 mm 7 mps 751 mmHg 73%
    22:00 +15°C° 0 mm 7 mps 752 mmHg 72%
    23:00 +14°C° 0 mm 7 mps 752 mmHg 70%

    26 May, Saturday

    Time Temperature Precipitation Wind Pressure Humidity
    00:00 +12°C° 0 mm 7 mps 753 mmHg 68%
    01:00 +11°C° 0 mm 7 mps 753 mmHg 66%
    02:00 +10°C° 0 mm 7 mps 754 mmHg 64%
    03:00 +10°C° 0 mm 7 mps 754 mmHg 64%
    04:00 +9°C° 0 mm 7 mps 755 mmHg 64%
    05:00 +8°C° 0 mm 7 mps 755 mmHg 65%
    06:00 +10°C° 0 mm 8 mps 756 mmHg 61%
    07:00 +11°C° 0 mm 8 mps 756 mmHg 57%
    08:00 +12°C° 0 mm 9 mps 756 mmHg 54%
    09:00 +13°C° 0 mm 9 mps 757 mmHg 52%
    10:00 +15°C° 0 mm 9 mps 757 mmHg 49%
    11:00 +16°C° 0 mm 9 mps 757 mmHg 47%
    12:00 +16°C° 0 mm 8 mps 757 mmHg 48%
    13:00 +17°C° 0 mm 8 mps 757 mmHg 48%
    14:00 +17°C° 0 mm 8 mps 757 mmHg 48%
    15:00 +17°C° 0 mm 8 mps 757 mmHg 50%
    16:00 +16°C° 0 mm 7 mps 757 mmHg 53%
    17:00 +16°C° 0 mm 7 mps 757 mmHg 55%
    18:00 +14°C° 0 mm 6 mps 757 mmHg 60%
    19:00 +13°C° 0 mm 5 mps 758 mmHg 64%
    20:00 +12°C° 0 mm 4 mps 758 mmHg 68%
    21:00 +11°C° 0 mm 4 mps 758 mmHg 71%
    22:00 +10°C° 0 mm 4 mps 758 mmHg 73%
    23:00 +8°C° 0 mm 4 mps 759 mmHg 75%

    27 May, Sunday

    Time Temperature Precipitation Wind Pressure Humidity
    00:00 +8°C° 0 mm 4 mps 759 mmHg 77%
    01:00 +7°C° 0 mm 4 mps 759 mmHg 79%
    02:00 +7°C° 0 mm 4 mps 759 mmHg 81%
    03:00 +7°C° 0 mm 4 mps 759 mmHg 80%
    04:00 +7°C° 0 mm 4 mps 759 mmHg 79%
    05:00 +7°C° 0 mm 4 mps 759 mmHg 78%
    06:00 +9°C° 0 mm 5 mps 759 mmHg 71%
    07:00 +12°C° 0 mm 5 mps 759 mmHg 63%
    08:00 +14°C° 0 mm 5 mps 759 mmHg 55%
    09:00 +15°C° 0 mm 6 mps 759 mmHg 53%
    10:00 +16°C° 0 mm 6 mps 758 mmHg 50%
    11:00 +19°C° 0 mm 6 mps 758 mmHg 48%
    12:00 +19°C° 0 mm 6 mps 758 mmHg 47%
    13:00 +20°C° 0 mm 6 mps 757 mmHg 47%
    14:00 +20°C° 0 mm 5 mps 757 mmHg 47%
    15:00 +20°C° 0 mm 5 mps 757 mmHg 49%
    16:00 +20°C° 0 mm 5 mps 756 mmHg 52%
    17:00 +20°C° 0 mm 4 mps 756 mmHg 54%
    18:00 +18°C° 0 mm 4 mps 756 mmHg 60%
    19:00 +16°C° 0 mm 3 mps 756 mmHg 66%
    20:00 +13°C° 0 mm 3 mps 756 mmHg 73%
    21:00 +14°C° 0 mm 2 mps 756 mmHg 74%
    22:00 +13°C° 0 mm 2 mps 756 mmHg 76%
    23:00 +12°C° 0 mm 2 mps 756 mmHg 78%

    28 May, Monday

    Time Temperature Precipitation Wind Pressure Humidity
    00:00 +12°C° 0 mm 2 mps 756 mmHg 79%
    01:00 +12°C° 0 mm 2 mps 756 mmHg 81%
    02:00 +10°C° 0 mm 2 mps 756 mmHg 82%
    03:00 +12°C° 0 mm 2 mps 756 mmHg 81%
    04:00 +12°C° 0 mm 2 mps 756 mmHg 81%
    05:00 +12°C° 0 mm 2 mps 756 mmHg 80%
    06:00 +15°C° 0 mm 2 mps 756 mmHg 73%
    07:00 +17°C° 0 mm 3 mps 755 mmHg 67%
    08:00 +19°C° 0 mm 3 mps 755 mmHg 60%
    09:00 +21°C° 0 mm 3 mps 755 mmHg 56%
    10:00 +22°C° 0 mm 3 mps 755 mmHg 52%
    11:00 +24°C° 0 mm 3 mps 754 mmHg 48%
    12:00 +25°C° 0 mm 3 mps 754 mmHg 47%
    13:00 +26°C° 0 mm 3 mps 753 mmHg 46%
    14:00 +26°C° 0 mm 3 mps 753 mmHg 45%
    15:00 +26°C° 0 mm 3 mps 753 mmHg 49%
    16:00 +26°C° 0 mm 3 mps 752 mmHg 53%
    17:00 +25°C° 0 mm 3 mps 752 mmHg 56%
    18:00 +22°C° 0 mm 3 mps 752 mmHg 64%
    19:00 +21°C° 0 mm 3 mps 752 mmHg 71%
    20:00 +19°C° 0 mm 3 mps 752 mmHg 78%
    21:00 +18°C° 0 mm 3 mps 752 mmHg 81%
    22:00 +17°C° 0 mm 3 mps 751 mmHg 84%
    23:00 +16°C° 0 mm 3 mps 751 mmHg 87%
    Show more